OBJECT D, 65547

Orbit data source: Space-Track

You're viewing an Uncataloged Satellite

Recently launched and/or uncataloged satellites may have evolving metadata. Metadata may include but not limited to: Owner, Maufacturer, Bus, Motor, and Mission.

OBJECT D, 65547 is a satellite owned by CAST (CN) in LEO that was launched on Sat, 06 Sep 2025 UTC launched from the Taiyaun Space Center, China (TSC). Unknown objects in Earth's orbit typically refer to objects detected orbiting the Earth but have not yet been identified or cataloged. These objects could be anything from previously untracked satellites, spent rocket stages, debris from satellite collisions, or even natural meteoroids temporarily captured by Earth's gravity.

Loading next visibility...
Identifier
65547, 2025-199D
Orbit
LEO
Country
Flag of CNCN / PRC
Related business
None
Manufacturer
Unknown
Mission
Spacecraft
Bus & Motor
Unknown
Mass
Unknown
Launch date (UTC)
2025-09-06 (2 weeks ago)
Launch vehicle
Unknown
Launch site
Taiyaun Space Center, China (TSC)
Object type
Unknown
Shape & HBR
Unknown
Radar Cross Section
Large (>1 m²)

Expand to show TLE details & history
Last TLE update: 14 hours ago

TLE from 14 hours ago
0 OBJECT D
1 65547U 25199D   25260.24548065  .00000320  00000-0  11200-3 0  9994
2 65547  85.9963 166.5039 0013967 267.0687  92.8909 14.32000594  1513
Epoch: 2025-09-17T05:53Z
TLE epoch observation values (Epoch: 2025-09-17T05:53:29.528Z)
Latitude
0.00003°
Longitude
81.70667°
Altitude
788.612 km
Speed
7.459 km/s
True Right ascension
11h 06m 00s
True Declination
0° 00' 00"
Sunlit
Object was in daylight at epoch
Visualization orbit readout
Latitude
Unknown
Longitude
Unknown
Altitude
Unknown
Speed
Unknown
Apparent Right ascension
Unknown
Apparent Declination
Unknown
Sunlit
N/A
Visualization observer readout
Local Sidereal Time
12:36:27
Azimuth
Unknown
Elevation
Unknown
Doppler factor
Unknown
Orbital elements
Apogee altitude
792.028 km
Perigee altitude
772.027 km
Semi-major axis
7,160.165 km
Eccentricity
0.0014
Inclination
85.9963°
RAAN
166.5039°
Arg. of periapsis
267.0687°
True anomaly
93.05073°
Mean anomaly
92.8909°
Eccentric anomaly
92.97082°
Mean motion
3.58227 °/min
Orbital period
100.49 mins
BSTAR
0.000112
Loading maneuver chart data...
Computing Atmospheric mass density...
Loading historical data...
Loading historical data...
Loading historical data...
Loading historical data...
Loading historical data...
Loading historical data...
Loading historical data...
Other satellites on launch #199 in the year 2025 (2025-09-06 UTC)

Documentation

Showing up to 5 results
|